Weather History for Madison, SD

Change the Weather History Date:

Thursday, October 10, 2013

  Actual Average Record
Temperature  
Mean Temperature 65 °F -  
Max Temperature 77 °F 61 °F 77 °F (2013)
Min Temperature 53 °F 36 °F 46 °F (2010)
Growing Degree Days 15 (Base 50)    
Moisture  
Dew Point 51 °F    
Average Humidity 65    
Maximum Humidity 100    
Minimum Humidity 41    
Precipitation  
Precipitation 0.00 in - - ()
Sea Level Pressure  
Sea Level Pressure 29.83 in    
Wind  
Wind Speed 16 mph (SSE)    
Max Wind Speed 28 mph    
Max Gust Speed 37 mph    
Visibility 10 miles    
Events Thunderstorm    
Averages and records for this station are not official NWS values.
T = Trace of Precipitation, MM = Missing Value Source: NWS Daily Summary

Daily Weather History Graph

Daily Weather History Graph

Search for Another Location

Airport:

Trip Planner

Search our weather history database for the weather conditions in past years. The results will help you decide how hot, cold, wet, or windy it might be!

Date:

Astronomy

Oct. 10, 2013 Rise Set
Actual Time 7:37 AM CDT 6:52 PM CDT
Civil Twilight 7:08 AM CDT 7:21 PM CDT
Nautical Twilight 6:34 AM CDT 7:54 PM CDT
Astronomical Twilight 6:01 AM CDT 8:28 PM CDT
Moon 1:37 PM CDT (10/10) 11:24 PM CDT (10/10)
Length of Visible Light 12h 13m
Length of Day
11h 15m
Waxing Crescent, 36% of the Moon is Illuminated
Oct 10
Waxing Crescent
Oct 11
First Quarter
Oct 18
Full
Oct 26
Last Quarter
Nov 3
New

Hourly Weather History & Observations

Time (CDT) Temp. Dew Point Humidity Pressure Visibility Wind Dir Wind Speed Gust Speed Precip Events Conditions
12:10 AM 57.2 °F 50.0 °F 77% 29.94 in 10.0 mi SSE 11.5 mph - N/A   Clear
12:30 AM 59.0 °F 50.0 °F 72% 29.93 in 10.0 mi SSE 13.8 mph - N/A   Clear
12:50 AM 59.0 °F 50.0 °F 72% 29.93 in 10.0 mi SSE 11.5 mph 17.3 mph N/A   Clear
1:10 AM 59.0 °F 50.0 °F 72% 29.93 in 10.0 mi SSE 12.7 mph - N/A   Clear
1:30 AM 59.0 °F 50.0 °F 72% 29.92 in 10.0 mi SSE 15.0 mph 21.9 mph N/A   Clear
1:50 AM 59.0 °F 50.0 °F 72% 29.92 in 10.0 mi SSE 12.7 mph 18.4 mph N/A   Clear
2:10 AM 59.0 °F 50.0 °F 72% 29.91 in 10.0 mi South 13.8 mph 18.4 mph N/A   Clear
2:30 AM 57.2 °F 48.2 °F 72% 29.91 in 10.0 mi SSE 12.7 mph 18.4 mph N/A   Clear
2:50 AM 57.2 °F 48.2 °F 72% 29.91 in 10.0 mi South 12.7 mph - N/A   Clear
3:10 AM 57.2 °F 48.2 °F 72% 29.91 in 10.0 mi SSE 11.5 mph - N/A   Clear
3:30 AM 57.2 °F 48.2 °F 72% 29.91 in 10.0 mi South 10.4 mph 16.1 mph N/A   Clear
3:50 AM 57.2 °F 48.2 °F 72% 29.91 in 10.0 mi SSE 12.7 mph - N/A   Clear
4:10 AM 55.4 °F 50.0 °F 82% 29.91 in 10.0 mi South 11.5 mph 18.4 mph N/A   Clear
4:30 AM 55.4 °F 50.0 °F 82% 29.91 in 10.0 mi South 13.8 mph 18.4 mph N/A   Clear
4:50 AM 55.4 °F 50.0 °F 82% 29.91 in 10.0 mi South 13.8 mph - N/A   Clear
5:10 AM 55.4 °F 50.0 °F 82% 29.90 in 10.0 mi South 13.8 mph - N/A   Clear
5:30 AM 55.4 °F 50.0 °F 82% 29.90 in 10.0 mi South 13.8 mph - N/A   Clear
5:50 AM 55.4 °F 50.0 °F 82% 29.90 in 10.0 mi SSE 15.0 mph - N/A   Clear
6:10 AM 55.4 °F 50.0 °F 82% 29.89 in 10.0 mi South 16.1 mph - N/A   Clear
6:30 AM 55.4 °F 50.0 °F 82% 29.89 in 10.0 mi SSE 17.3 mph 23.0 mph N/A   Clear
6:50 AM 55.4 °F 51.8 °F 88% 29.89 in 10.0 mi South 16.1 mph 21.9 mph N/A   Clear
7:10 AM 53.6 °F 51.8 °F 94% 29.88 in 10.0 mi South 16.1 mph - N/A   Clear
7:30 AM 53.6 °F 51.8 °F 94% 29.88 in 10.0 mi South 15.0 mph - N/A   Clear
7:50 AM 53.6 °F 53.6 °F 100% 29.89 in 10.0 mi South 12.7 mph - N/A   Clear
8:10 AM 53.6 °F 53.6 °F 100% 29.88 in 10.0 mi South 13.8 mph - N/A Thunderstorm Thunderstorm
8:30 AM 55.4 °F 53.6 °F 94% 29.88 in 10.0 mi South 15.0 mph - N/A   Clear
8:50 AM 55.4 °F 53.6 °F 94% 29.88 in 10.0 mi South 13.8 mph - N/A   Clear
9:10 AM 55.4 °F 53.6 °F 94% 29.88 in 10.0 mi South 15.0 mph - N/A   Clear
9:30 AM 57.2 °F 53.6 °F 88% 29.87 in 10.0 mi South 18.4 mph 23.0 mph N/A   Clear
9:50 AM 59.0 °F 55.4 °F 88% 29.88 in 10.0 mi South 18.4 mph 24.2 mph N/A   Clear
10:10 AM 62.6 °F 55.4 °F 77% 29.88 in 10.0 mi South 18.4 mph - N/A   Clear
10:30 AM 64.4 °F 55.4 °F 73% 29.88 in 10.0 mi South 18.4 mph - N/A   Clear
10:50 AM 64.4 °F 53.6 °F 68% 29.87 in 10.0 mi South 16.1 mph 24.2 mph N/A   Clear
11:10 AM 66.2 °F 53.6 °F 64% 29.87 in 10.0 mi South 19.6 mph 24.2 mph N/A   Clear
11:30 AM 66.2 °F 53.6 °F 64% 29.87 in 10.0 mi South 16.1 mph - N/A   Clear
11:50 AM 68.0 °F 53.6 °F 60% 29.86 in 10.0 mi South 18.4 mph - N/A   Clear
12:10 PM 68.0 °F 51.8 °F 56% 29.86 in 10.0 mi South 17.3 mph 24.2 mph N/A   Clear
12:30 PM 69.8 °F 51.8 °F 53% 29.85 in 10.0 mi SSE 19.6 mph 26.5 mph N/A   Clear
12:50 PM 69.8 °F 51.8 °F 53% 29.84 in 10.0 mi South 18.4 mph 25.3 mph N/A   Clear
1:10 PM 71.6 °F 51.8 °F 50% 29.83 in 10.0 mi SSE 18.4 mph 25.3 mph N/A   Clear
1:30 PM 71.6 °F 51.8 °F 50% 29.82 in 10.0 mi South 18.4 mph 25.3 mph N/A   Clear
1:50 PM 73.4 °F 51.8 °F 47% 29.81 in 10.0 mi SSE 19.6 mph 26.5 mph N/A   Clear
2:10 PM 73.4 °F 51.8 °F 47% 29.79 in 10.0 mi SSE 24.2 mph 31.1 mph N/A   Clear
2:30 PM 75.2 °F 51.8 °F 44% 29.77 in 10.0 mi SSE 24.2 mph 31.1 mph N/A   Clear
2:50 PM 75.2 °F 51.8 °F 44% 29.77 in 10.0 mi SSE 24.2 mph 33.4 mph N/A   Clear
3:10 PM 77.0 °F 51.8 °F 41% 29.76 in 10.0 mi South 25.3 mph 34.5 mph N/A   Clear
3:30 PM 75.2 °F 51.8 °F 44% 29.76 in 10.0 mi South 24.2 mph 33.4 mph N/A   Clear
3:50 PM 75.2 °F 51.8 °F 44% 29.76 in 10.0 mi South 24.2 mph 32.2 mph N/A   Clear
4:10 PM 77.0 °F 51.8 °F 41% 29.75 in 10.0 mi South 26.5 mph 36.8 mph N/A   Clear
4:30 PM 75.2 °F 51.8 °F 44% 29.75 in 10.0 mi South 27.6 mph 36.8 mph N/A   Clear
4:50 PM 75.2 °F 51.8 °F 44% 29.75 in 10.0 mi South 19.6 mph 29.9 mph N/A   Clear
5:10 PM 77.0 °F 51.8 °F 41% 29.75 in 10.0 mi South 24.2 mph 36.8 mph N/A   Clear
5:30 PM 75.2 °F 51.8 °F 44% 29.75 in 10.0 mi South 19.6 mph 28.8 mph N/A   Clear
5:50 PM 73.4 °F 51.8 °F 47% 29.74 in 10.0 mi South 24.2 mph 33.4 mph N/A   Clear
6:10 PM 73.4 °F 51.8 °F 47% 29.74 in 10.0 mi SSE 20.7 mph 31.1 mph N/A   Clear
6:30 PM 71.6 °F 51.8 °F 50% 29.74 in 10.0 mi South 21.9 mph 29.9 mph N/A   Clear
6:50 PM 71.6 °F 51.8 °F 50% 29.74 in 10.0 mi SSE 16.1 mph 23.0 mph N/A   Clear
7:10 PM 71.6 °F 50.0 °F 46% 29.75 in 10.0 mi SSE 16.1 mph - N/A   Clear
7:30 PM 69.8 °F 50.0 °F 49% 29.74 in 10.0 mi SSE 16.1 mph 23.0 mph N/A   Clear
7:50 PM 69.8 °F 50.0 °F 49% 29.74 in 10.0 mi SSE 17.3 mph 25.3 mph N/A   Clear
8:10 PM 68.0 °F 50.0 °F 52% 29.74 in 10.0 mi SSE 16.1 mph 26.5 mph N/A   Clear
8:30 PM 68.0 °F 50.0 °F 52% 29.74 in 10.0 mi SSE 17.3 mph 26.5 mph N/A   Clear
8:50 PM 68.0 °F 50.0 °F 52% 29.74 in 10.0 mi SSE 17.3 mph 24.2 mph N/A   Clear
9:10 PM 68.0 °F 50.0 °F 52% 29.73 in 10.0 mi SSE 19.6 mph 28.8 mph N/A   Clear
9:30 PM 68.0 °F 50.0 °F 52% 29.72 in 10.0 mi SSE 21.9 mph 26.5 mph N/A   Clear
9:50 PM 66.2 °F 50.0 °F 56% 29.72 in 10.0 mi SSE 18.4 mph 26.5 mph N/A   Clear
10:10 PM 66.2 °F 50.0 °F 56% 29.71 in 10.0 mi SSE 18.4 mph 26.5 mph N/A   Clear
10:30 PM 64.4 °F 50.0 °F 59% 29.70 in 10.0 mi SSE 20.7 mph 26.5 mph N/A   Clear
10:50 PM 64.4 °F 50.0 °F 59% 29.71 in 10.0 mi SSE 21.9 mph 26.5 mph N/A   Clear
11:10 PM 64.4 °F 50.0 °F 59% 29.71 in 10.0 mi SSE 20.7 mph 27.6 mph N/A   Clear
11:30 PM 64.4 °F 50.0 °F 59% 29.72 in 10.0 mi SSE 19.6 mph 29.9 mph N/A   Clear
11:50 PM 64.4 °F 50.0 °F 59% 29.71 in 10.0 mi SSE 20.7 mph 29.9 mph N/A   Clear